Time,TemperatureF,DewpointF,PressureIn,WindDirection,WindDirectionDegrees,WindSpeedMPH,WindSpeedGustMPH,Humidity,HourlyPrecipIn,Conditions,Clouds,dailyrainin,SolarRadiationWatts/m^2,SoftwareType,DateUTC
2013-01-16 00:03:00,70.0,66.0,-100.00,SE,144,2.0,-999.0,85,0.00,,,-99.99,0.000000,,2013-01-16 05:03:00,
2013-01-16 00:12:00,70.0,66.0,-100.00,SE,146,2.0,-999.0,86,0.00,,,-99.99,0.000000,,2013-01-16 05:12:00,
2013-01-16 00:22:00,70.0,66.0,-100.00,SE,146,2.0,-999.0,86,0.00,,,-99.99,0.000000,,2013-01-16 05:22:00,
2013-01-16 00:32:00,70.0,66.0,-100.00,SE,146,2.0,-999.0,86,0.00,,,-99.99,0.000000,,2013-01-16 05:32:00,
2013-01-16 00:42:00,69.0,65.0,-100.00,ESE,121,2.0,-999.0,87,0.00,,,-99.99,0.000000,,2013-01-16 05:42:00,
2013-01-16 00:53:00,69.0,65.0,-100.00,ESE,121,2.0,-999.0,87,0.00,,,-99.99,0.000000,,2013-01-16 05:53:00,
2013-01-16 01:02:00,68.0,65.0,-100.00,ESE,111,2.0,-999.0,88,0.00,,,-99.99,0.000000,,2013-01-16 06:02:00,
2013-01-16 01:12:00,68.0,65.0,-100.00,ESE,111,2.0,-999.0,88,0.00,,,-99.99,0.000000,,2013-01-16 06:12:00,
2013-01-16 01:22:00,68.0,65.0,-100.00,ESE,114,1.0,-999.0,90,0.00,,,-99.99,0.000000,,2013-01-16 06:22:00,
2013-01-16 01:32:00,67.0,64.0,-100.00,SE,126,1.0,-999.0,90,0.00,,,-99.99,0.000000,,2013-01-16 06:32:00,
2013-01-16 01:43:00,67.0,64.0,-100.00,SE,126,1.0,-999.0,90,0.00,,,-99.99,0.000000,,2013-01-16 06:43:00,
2013-01-16 01:53:00,67.0,64.0,-100.00,SE,135,2.0,-999.0,91,0.00,,,-99.99,0.000000,,2013-01-16 06:53:00,
2013-01-16 02:02:00,67.0,64.0,-100.00,SE,135,2.0,-999.0,91,0.00,,,-99.99,0.000000,,2013-01-16 07:02:00,
2013-01-16 02:12:00,66.0,64.0,-100.00,ESE,107,1.0,-999.0,92,0.00,,,-99.99,0.000000,,2013-01-16 07:12:00,
2013-01-16 02:22:00,66.0,64.0,-100.00,ESE,107,1.0,-999.0,92,0.00,,,-99.99,0.000000,,2013-01-16 07:22:00,
2013-01-16 02:33:00,66.0,64.0,-100.00,ESE,122,1.0,-999.0,92,0.00,,,-99.99,0.000000,,2013-01-16 07:33:00,
2013-01-16 02:42:00,66.0,64.0,-100.00,ESE,113,2.0,-999.0,93,0.00,,,-99.99,0.000000,,2013-01-16 07:42:00,
2013-01-16 02:52:00,66.0,64.0,-100.00,ESE,113,2.0,-999.0,93,0.00,,,-99.99,0.000000,,2013-01-16 07:52:00,
2013-01-16 03:02:00,66.0,64.0,-100.00,ESE,113,2.0,-999.0,93,0.00,,,-99.99,0.000000,,2013-01-16 08:02:00,
2013-01-16 03:12:00,65.0,63.0,-100.00,ESE,118,2.0,-999.0,93,0.00,,,-99.99,0.000000,,2013-01-16 08:12:00,
2013-01-16 03:22:00,65.0,64.0,-100.00,SE,132,2.0,-999.0,93,0.00,,,-99.99,0.000000,,2013-01-16 08:22:00,
2013-01-16 03:32:00,65.0,63.0,-100.00,SE,124,2.0,-999.0,94,0.00,,,-99.99,0.000000,,2013-01-16 08:32:00,
2013-01-16 03:42:00,65.0,63.0,-100.00,SE,125,2.0,-999.0,94,0.00,,,-99.99,0.000000,,2013-01-16 08:42:00,
2013-01-16 03:53:00,65.0,63.0,-100.00,SE,125,2.0,-999.0,94,0.00,,,-99.99,0.000000,,2013-01-16 08:53:00,
2013-01-16 04:02:00,65.0,63.0,-100.00,SE,125,2.0,-999.0,94,0.00,,,-99.99,0.000000,,2013-01-16 09:02:00,
2013-01-16 04:12:00,65.0,63.0,-100.00,SE,126,1.0,-999.0,94,0.00,,,-99.99,0.000000,,2013-01-16 09:12:00,
2013-01-16 04:22:00,65.0,63.0,-100.00,SE,126,1.0,-999.0,94,0.00,,,-99.99,0.000000,,2013-01-16 09:22:00,
2013-01-16 04:32:00,65.0,63.0,-100.00,SE,126,1.0,-999.0,94,0.00,,,-99.99,0.000000,,2013-01-16 09:32:00,
2013-01-16 04:42:00,64.0,63.0,-100.00,ESE,122,1.0,-999.0,94,0.00,,,-99.99,0.000000,,2013-01-16 09:42:00,
2013-01-16 04:53:00,64.0,63.0,-100.00,ESE,122,1.0,-999.0,94,0.00,,,-99.99,0.000000,,2013-01-16 09:53:00,
2013-01-16 05:02:00,65.0,64.0,-100.00,SE,144,1.0,-999.0,95,0.00,,,-99.99,0.000000,,2013-01-16 10:02:00,
2013-01-16 05:12:00,65.0,64.0,-100.00,ESE,123,1.0,-999.0,95,0.00,,,-99.99,0.000000,,2013-01-16 10:12:00,
2013-01-16 05:22:00,65.0,64.0,-100.00,ESE,123,1.0,-999.0,95,0.00,,,-99.99,0.000000,,2013-01-16 10:22:00,
2013-01-16 05:32:00,65.0,63.0,-100.00,SE,133,2.0,-999.0,95,0.00,,,-99.99,0.000000,,2013-01-16 10:32:00,
2013-01-16 05:42:00,65.0,63.0,-100.00,SE,143,2.0,-999.0,95,0.00,,,-99.99,0.000000,,2013-01-16 10:42:00,
2013-01-16 05:53:00,65.0,63.0,-100.00,SE,143,2.0,-999.0,95,0.00,,,-99.99,0.000000,,2013-01-16 10:53:00,
2013-01-16 06:02:00,65.0,63.0,-100.00,SE,129,2.0,-999.0,94,0.00,,,-99.99,0.000000,,2013-01-16 11:02:00,
2013-01-16 06:12:00,65.0,63.0,-100.00,ESE,115,2.0,-999.0,94,0.00,,,-99.99,0.000000,,2013-01-16 11:12:00,
2013-01-16 06:23:00,65.0,63.0,-100.00,ESE,115,2.0,-999.0,94,0.00,,,-99.99,0.000000,,2013-01-16 11:23:00,
2013-01-16 06:33:00,64.0,63.0,-100.00,ESE,119,2.0,-999.0,94,0.00,,,-99.99,0.000000,,2013-01-16 11:33:00,
2013-01-16 06:43:00,64.0,62.0,-100.00,ESE,123,2.0,-999.0,95,0.00,,,-99.99,0.000000,,2013-01-16 11:43:00,
2013-01-16 06:53:00,64.0,62.0,-100.00,ESE,123,2.0,-999.0,95,0.00,,,-99.99,0.000000,,2013-01-16 11:53:00,
2013-01-16 07:03:00,64.0,62.0,-100.00,ESE,116,1.0,-999.0,95,0.00,,,-99.99,0.000000,,2013-01-16 12:03:00,
2013-01-16 07:13:00,64.0,62.0,-100.00,ESE,108,1.0,-999.0,95,0.00,,,-99.99,0.000000,,2013-01-16 12:13:00,
2013-01-16 07:22:00,64.0,62.0,-100.00,ESE,108,1.0,-999.0,95,0.00,,,-99.99,0.000000,,2013-01-16 12:22:00,
2013-01-16 07:33:00,63.0,62.0,-100.00,ESE,123,1.0,-999.0,95,0.00,,,-99.99,1.800000,,2013-01-16 12:33:00,
2013-01-16 07:43:00,63.0,62.0,-100.00,ESE,103,1.0,-999.0,95,0.00,,,-99.99,7.000000,,2013-01-16 12:43:00,
2013-01-16 07:53:00,63.0,62.0,-100.00,ESE,103,1.0,-999.0,95,0.00,,,-99.99,7.000000,,2013-01-16 12:53:00,
2013-01-16 08:03:00,64.0,62.0,-100.00,East,87,1.0,-999.0,95,0.00,,,-99.99,22.400000,,2013-01-16 13:03:00,
2013-01-16 08:12:00,64.0,63.0,-100.00,East,94,2.0,-999.0,95,0.00,,,-99.99,38.000000,,2013-01-16 13:12:00,
2013-01-16 08:23:00,64.0,63.0,-100.00,East,94,2.0,-999.0,95,0.00,,,-99.99,38.000000,,2013-01-16 13:23:00,
2013-01-16 08:33:00,64.0,63.0,-100.00,ESE,115,2.0,-999.0,95,0.00,,,-99.99,49.799999,,2013-01-16 13:33:00,
2013-01-16 08:43:00,65.0,63.0,-100.00,ESE,121,3.0,-999.0,95,0.00,,,-99.99,53.500000,,2013-01-16 13:43:00,
2013-01-16 08:53:00,65.0,63.0,-100.00,ESE,121,3.0,-999.0,95,0.00,,,-99.99,53.500000,,2013-01-16 13:53:00,
2013-01-16 09:03:00,65.0,64.0,-100.00,ESE,121,2.0,-999.0,95,0.00,,,-99.99,82.199997,,2013-01-16 14:03:00,
2013-01-16 09:12:00,65.0,64.0,-100.00,ESE,121,2.0,-999.0,95,0.00,,,-99.99,82.199997,,2013-01-16 14:12:00,
2013-01-16 09:23:00,66.0,65.0,-100.00,SSE,159,2.0,-999.0,94,0.00,,,-99.99,172.300003,,2013-01-16 14:23:00,
2013-01-16 09:33:00,67.0,65.0,-100.00,South,170,2.0,-999.0,94,0.00,,,-99.99,159.500000,,2013-01-16 14:33:00,
2013-01-16 09:43:00,68.0,66.0,-100.00,SSW,194,2.0,-999.0,93,0.00,,,-99.99,209.399994,,2013-01-16 14:43:00,
2013-01-16 09:53:00,68.0,66.0,-100.00,SSW,194,2.0,-999.0,93,0.00,,,-99.99,209.399994,,2013-01-16 14:53:00,
2013-01-16 10:03:00,68.0,66.0,-100.00,SW,217,2.0,-999.0,92,0.00,,,-99.99,184.300003,,2013-01-16 15:03:00,
2013-01-16 10:12:00,70.0,67.0,-100.00,SW,221,3.0,-999.0,90,0.00,,,-99.99,227.899994,,2013-01-16 15:12:00,
2013-01-16 10:23:00,70.0,67.0,-100.00,SW,221,3.0,-999.0,90,0.00,,,-99.99,227.899994,,2013-01-16 15:23:00,
2013-01-16 10:33:00,71.0,67.0,-100.00,SW,217,3.0,-999.0,87,0.00,,,-99.99,268.100006,,2013-01-16 15:33:00,
2013-01-16 10:43:00,73.0,67.0,-100.00,SW,235,2.0,-999.0,82,0.00,,,-99.99,366.100006,,2013-01-16 15:43:00,
2013-01-16 10:53:00,73.0,67.0,-100.00,SW,235,2.0,-999.0,82,0.00,,,-99.99,366.100006,,2013-01-16 15:53:00,
2013-01-16 11:03:00,74.0,67.0,-100.00,SW,223,3.0,-999.0,78,0.00,,,-99.99,354.399994,,2013-01-16 16:03:00,
2013-01-16 11:12:00,74.0,67.0,-100.00,SW,223,3.0,-999.0,78,0.00,,,-99.99,354.399994,,2013-01-16 16:12:00,
2013-01-16 11:22:00,75.0,67.0,-100.00,SW,224,3.0,-999.0,75,0.00,,,-99.99,410.000000,,2013-01-16 16:22:00,
2013-01-16 11:33:00,76.0,67.0,-100.00,SW,226,3.0,-999.0,73,0.00,,,-99.99,537.200012,,2013-01-16 16:33:00,
2013-01-16 11:42:00,77.0,67.0,-100.00,SSW,206,3.0,-999.0,70,0.00,,,-99.99,474.899994,,2013-01-16 16:42:00,
2013-01-16 11:53:00,77.0,67.0,-100.00,SSW,206,3.0,-999.0,70,0.00,,,-99.99,474.899994,,2013-01-16 16:53:00,
2013-01-16 12:03:00,78.0,67.0,-100.00,SSW,197,4.0,-999.0,68,0.00,,,-99.99,556.200012,,2013-01-16 17:03:00,
2013-01-16 12:12:00,78.0,67.0,-100.00,SSW,197,4.0,-999.0,68,0.00,,,-99.99,556.200012,,2013-01-16 17:12:00,
2013-01-16 12:23:00,78.0,66.0,-100.00,SSW,208,4.0,-999.0,68,0.00,,,-99.99,489.899994,,2013-01-16 17:23:00,
2013-01-16 12:33:00,78.0,66.0,-100.00,SSW,208,4.0,-999.0,68,0.00,,,-99.99,489.899994,,2013-01-16 17:33:00,
2013-01-16 12:44:00,79.0,64.0,-100.00,South,176,4.0,-999.0,61,0.00,,,-99.99,453.100006,,2013-01-16 17:44:00,
2013-01-16 12:53:00,79.0,64.0,-100.00,South,176,4.0,-999.0,61,0.00,,,-99.99,453.100006,,2013-01-16 17:53:00,
2013-01-16 13:03:00,78.0,64.0,-100.00,SSE,150,4.0,-999.0,60,0.00,,,-99.99,565.900024,,2013-01-16 18:03:00,
2013-01-16 13:13:00,80.0,64.0,-100.00,SSE,166,3.0,-999.0,58,0.00,,,-99.99,434.799988,,2013-01-16 18:13:00,
2013-01-16 13:23:00,80.0,64.0,-100.00,SSE,166,3.0,-999.0,58,0.00,,,-99.99,434.799988,,2013-01-16 18:23:00,
2013-01-16 13:33:00,78.0,63.0,-100.00,SSE,159,3.0,-999.0,59,0.00,,,-99.99,200.899994,,2013-01-16 18:33:00,
2013-01-16 13:43:00,78.0,63.0,-100.00,SSW,200,2.0,-999.0,60,0.00,,,-99.99,219.800003,,2013-01-16 18:43:00,
2013-01-16 13:53:00,78.0,63.0,-100.00,SSW,200,2.0,-999.0,60,0.00,,,-99.99,219.800003,,2013-01-16 18:53:00,
2013-01-16 14:03:00,78.0,63.0,-100.00,SW,228,2.0,-999.0,59,0.00,,,-99.99,209.199997,,2013-01-16 19:03:00,
2013-01-16 14:12:00,78.0,63.0,-100.00,SW,228,2.0,-999.0,59,0.00,,,-99.99,209.199997,,2013-01-16 19:12:00,
2013-01-16 14:23:00,80.0,63.0,-100.00,SW,220,3.0,-999.0,55,0.00,,,-99.99,610.000000,,2013-01-16 19:23:00,
2013-01-16 14:33:00,80.0,62.0,-100.00,SW,215,3.0,-999.0,53,0.00,,,-99.99,292.799988,,2013-01-16 19:33:00,
2013-01-16 14:43:00,80.0,62.0,-100.00,SW,215,3.0,-999.0,53,0.00,,,-99.99,292.799988,,2013-01-16 19:43:00,
2013-01-16 14:53:00,80.0,62.0,-100.00,SW,215,3.0,-999.0,53,0.00,,,-99.99,292.799988,,2013-01-16 19:53:00,
2013-01-16 15:03:00,79.0,62.0,-100.00,South,183,2.0,-999.0,55,0.00,,,-99.99,204.899994,,2013-01-16 20:03:00,
2013-01-16 15:12:00,79.0,62.0,-100.00,South,184,2.0,-999.0,56,0.00,,,-99.99,202.000000,,2013-01-16 20:12:00,
2013-01-16 15:23:00,79.0,62.0,-100.00,South,184,2.0,-999.0,56,0.00,,,-99.99,202.000000,,2013-01-16 20:23:00,
2013-01-16 15:33:00,80.0,62.0,-100.00,SSE,155,3.0,-999.0,52,0.00,,,-99.99,490.100006,,2013-01-16 20:33:00,
2013-01-16 15:43:00,83.0,61.0,-100.00,SW,216,3.0,-999.0,48,0.00,,,-99.99,516.500000,,2013-01-16 20:43:00,
2013-01-16 15:53:00,83.0,61.0,-100.00,SW,216,3.0,-999.0,48,0.00,,,-99.99,516.500000,,2013-01-16 20:53:00,
2013-01-16 16:03:00,83.0,61.0,-100.00,SW,216,3.0,-999.0,48,0.00,,,-99.99,516.500000,,2013-01-16 21:03:00,
2013-01-16 16:12:00,79.0,60.0,-100.00,South,180,3.0,-999.0,52,0.00,,,-99.99,62.599998,,2013-01-16 21:12:00,
2013-01-16 16:22:00,79.0,60.0,-100.00,South,180,3.0,-999.0,52,0.00,,,-99.99,62.599998,,2013-01-16 21:22:00,
2013-01-16 16:33:00,78.0,61.0,-100.00,SSE,159,2.0,-999.0,54,0.00,,,-99.99,100.199997,,2013-01-16 21:33:00,
2013-01-16 16:43:00,79.0,61.0,-100.00,SE,142,2.0,-999.0,53,0.00,,,-99.99,213.699997,,2013-01-16 21:43:00,
2013-01-16 16:53:00,79.0,61.0,-100.00,SE,142,2.0,-999.0,53,0.00,,,-99.99,213.699997,,2013-01-16 21:53:00,
2013-01-16 17:03:00,78.0,61.0,-100.00,South,173,2.0,-999.0,54,0.00,,,-99.99,61.200001,,2013-01-16 22:03:00,
2013-01-16 17:12:00,78.0,61.0,-100.00,South,173,2.0,-999.0,54,0.00,,,-99.99,61.200001,,2013-01-16 22:12:00,
2013-01-16 17:23:00,77.0,61.0,-100.00,SE,141,1.0,-999.0,57,0.00,,,-99.99,35.599998,,2013-01-16 22:23:00,
2013-01-16 17:33:00,77.0,61.0,-100.00,SE,144,2.0,-999.0,57,0.00,,,-99.99,44.500000,,2013-01-16 22:33:00,
2013-01-16 17:43:00,77.0,61.0,-100.00,SE,144,2.0,-999.0,57,0.00,,,-99.99,44.500000,,2013-01-16 22:43:00,
2013-01-16 17:53:00,76.0,60.0,-100.00,SE,136,2.0,-999.0,57,0.00,,,-99.99,19.400000,,2013-01-16 22:53:00,
2013-01-16 18:03:00,75.0,60.0,-100.00,ESE,123,1.0,-999.0,60,0.00,,,-99.99,12.400000,,2013-01-16 23:03:00,
2013-01-16 18:12:00,74.0,60.0,-100.00,SE,136,2.0,-999.0,62,0.00,,,-99.99,4.800000,,2013-01-16 23:12:00,
2013-01-16 18:23:00,74.0,60.0,-100.00,SE,136,2.0,-999.0,62,0.00,,,-99.99,4.800000,,2013-01-16 23:23:00,
2013-01-16 18:33:00,73.0,60.0,-100.00,ESE,119,2.0,-999.0,64,0.00,,,-99.99,0.800000,,2013-01-16 23:33:00,
2013-01-16 18:43:00,73.0,60.0,-100.00,ESE,119,2.0,-999.0,64,0.00,,,-99.99,0.800000,,2013-01-16 23:43:00,
2013-01-16 18:53:00,72.0,60.0,-100.00,ESE,116,2.0,-999.0,65,0.00,,,-99.99,0.000000,,2013-01-16 23:53:00,
2013-01-16 19:02:00,71.0,60.0,-100.00,South,184,1.0,-999.0,68,0.00,,,-99.99,0.000000,,2013-01-17 00:02:00,
2013-01-16 19:12:00,69.0,60.0,-100.00,SW,226,1.0,-999.0,73,0.00,,,-99.99,0.000000,,2013-01-17 00:12:00,
2013-01-16 19:22:00,69.0,60.0,-100.00,SW,226,1.0,-999.0,73,0.00,,,-99.99,0.000000,,2013-01-17 00:22:00,
2013-01-16 19:32:00,67.0,59.0,-100.00,ESE,106,1.0,-999.0,76,0.00,,,-99.99,0.000000,,2013-01-17 00:32:00,
2013-01-16 19:42:00,65.0,58.0,-100.00,NE,36,2.0,-999.0,78,0.00,,,-99.99,0.000000,,2013-01-17 00:42:00,
2013-01-16 19:52:00,65.0,58.0,-100.00,NE,36,2.0,-999.0,78,0.00,,,-99.99,0.000000,,2013-01-17 00:52:00,
2013-01-16 20:02:00,64.0,58.0,-100.00,ENE,62,2.0,-999.0,83,0.00,,,-99.99,0.000000,,2013-01-17 01:02:00,
2013-01-16 20:12:00,64.0,60.0,-100.00,ENE,77,2.0,-999.0,85,0.00,,,-99.99,0.000000,,2013-01-17 01:12:00,
2013-01-16 20:22:00,64.0,60.0,-100.00,ENE,77,2.0,-999.0,85,0.00,,,-99.99,0.000000,,2013-01-17 01:22:00,
2013-01-16 20:33:00,65.0,60.0,-100.00,NE,36,1.0,-999.0,82,0.00,,,-99.99,0.000000,,2013-01-17 01:33:00,
2013-01-16 20:42:00,65.0,60.0,-100.00,WNW,298,1.0,-999.0,84,0.00,,,-99.99,0.000000,,2013-01-17 01:42:00,
2013-01-16 20:52:00,65.0,60.0,-100.00,WNW,298,1.0,-999.0,84,0.00,,,-99.99,0.000000,,2013-01-17 01:52:00,
2013-01-16 21:02:00,64.0,59.0,-100.00,ENE,76,1.0,-999.0,86,0.00,,,-99.99,0.000000,,2013-01-17 02:02:00,
2013-01-16 21:12:00,64.0,59.0,-100.00,ENE,76,1.0,-999.0,86,0.00,,,-99.99,0.000000,,2013-01-17 02:12:00,
2013-01-16 21:22:00,63.0,59.0,-100.00,North,6,0.0,-999.0,87,0.00,,,-99.99,0.000000,,2013-01-17 02:22:00,
2013-01-16 21:32:00,63.0,59.0,-100.00,North,6,0.0,-999.0,87,0.00,,,-99.99,0.000000,,2013-01-17 02:32:00,
2013-01-16 21:43:00,63.0,59.0,-100.00,North,6,0.0,-999.0,87,0.00,,,-99.99,0.000000,,2013-01-17 02:43:00,
2013-01-16 21:52:00,63.0,59.0,-100.00,North,6,0.0,-999.0,87,0.00,,,-99.99,0.000000,,2013-01-17 02:52:00,
2013-01-16 22:03:00,63.0,60.0,-100.00,West,260,2.0,-999.0,89,0.00,,,-99.99,0.000000,,2013-01-17 03:03:00,
2013-01-16 22:12:00,63.0,60.0,-100.00,West,260,2.0,-999.0,89,0.00,,,-99.99,0.000000,,2013-01-17 03:12:00,
2013-01-16 22:22:00,63.0,59.0,-100.00,WSW,250,2.0,-999.0,88,0.00,,,-99.99,0.000000,,2013-01-17 03:22:00,
2013-01-16 22:32:00,62.0,59.0,-100.00,SW,219,2.0,-999.0,88,0.00,,,-99.99,0.000000,,2013-01-17 03:32:00,
2013-01-16 22:42:00,62.0,59.0,-100.00,West,270,1.0,-999.0,89,0.00,,,-99.99,0.000000,,2013-01-17 03:42:00,
2013-01-16 22:53:00,62.0,59.0,-100.00,West,270,1.0,-999.0,89,0.00,,,-99.99,0.000000,,2013-01-17 03:53:00,
2013-01-16 23:02:00,62.0,59.0,-100.00,West,271,1.0,-999.0,90,0.00,,,-99.99,0.000000,,2013-01-17 04:02:00,
2013-01-16 23:12:00,62.0,59.0,-100.00,SW,218,0.0,-999.0,91,0.00,,,-99.99,0.000000,,2013-01-17 04:12:00,
2013-01-16 23:22:00,62.0,59.0,-100.00,SW,218,0.0,-999.0,91,0.00,,,-99.99,0.000000,,2013-01-17 04:22:00,
2013-01-16 23:32:00,61.0,59.0,-100.00,West,269,0.0,-999.0,92,0.00,,,-99.99,0.000000,,2013-01-17 04:32:00,
2013-01-16 23:42:00,61.0,58.0,-100.00,East,88,1.0,-999.0,92,0.00,,,-99.99,0.000000,,2013-01-17 04:42:00,
2013-01-16 23:52:00,61.0,58.0,-100.00,East,88,1.0,-999.0,92,0.00,,,-99.99,0.000000,,2013-01-17 04:52:00,